Location: Houhaj�rvi
(61.2833°N, 23.0000°E)
Time: 16:19:34
(UTC+00:00)

NOSS 3-1 (A) - Pass Details

Date: 27 February 2020
Orbit: 761 x 1452 km, 63.4° (Epoch: 26 March)

Event Time Altitude Azimuth Distance (km) Brightness Sun altitude
Rises 19:19:05 0° 259° (W) 3,503 7.1 -25.5°
Reaches altitude 10° 19:21:25 10° 261° (W) 2,642 6.4 -25.7°
Maximum altitude 19:27:39 79° 348° (NNW) 1,078 3.7 -26.3°
Enters shadow 19:30:26 40° 69° (ENE) 1,573 4.3 -26.6°
